This demonstration page uses our WeatherBlox Daily Observations layout. Learn more.

Hourly Observations for February 9, 2017

Temp ( °F °C ) Dew Point ( °F °C ) Humidity (%) Winds ( mph kmh ) Pressure ( in mb ) Visibility ( mi km ) Precip ( " mm )
12:15 am 00:15 Mostly Cloudy with Nearby Thunderstorms 50 10 43 6 76 76 NE 8 13 29.59 1002 10 16.09344 0 0
12:35 am 00:35 Mostly Cloudy 50 10 43 6 76 76 undefined N/A 29.59 1002 10 16.09344 0 0
12:55 am 00:55 Cloudy 50 10 43 6 76 76 NNE 3 6 29.59 1002 10 16.09344 0 0
1:15 am 01:15 Cloudy with Light Rain 48 9 43 6 82 82 NNE 3 6 29.56 1001 10 16.09344 0 0
1:35 am 01:35 Cloudy with Light Rain 46 8 45 7 93 93 NE 6 9 29.53 1000 10 16.09344 0 0
1:55 am 01:55 Cloudy with Light Rain 46 8 45 7 93 93 undefined N/A 29.53 1000 10 16.09344 0 0
2:15 am 02:15 Cloudy with Rain 45 7 45 7 100 100 N 10 17 29.53 1000 10 16.09344 0 0
2:35 am 02:35 Cloudy with Heavy Rain 45 7 45 7 100 100 undefined N/A 29.53 1000 5 8.04672 0 0
2:55 am 02:55 Cloudy with Heavy Rain 45 7 45 7 100 100 undefined N/A 29.53 1000 4 6.437376 0 0
3:15 am 03:15 Cloudy with Rain 45 7 45 7 100 100 NNW 16 26 29.53 1000 7 11.265408 0 0
3:35 am 03:35 Cloudy with Light Rain 43 6 43 6 100 100 undefined N/A 29.53 1000 10 16.09344 0 0
3:55 am 03:55 Cloudy with Rain 41 5 41 5 100 100 undefined N/A 29.53 1000 7 11.265408 0 0
4:15 am 04:15 Cloudy with Light Rain 39 4 39 4 100 100 undefined N/A 29.59 1002 10 16.09344 0 0
4:35 am 04:35 Cloudy with Light Rain 37 3 37 3 100 100 undefined N/A 29.59 1002 5 8.04672 0 0
4:55 am 04:55 Cloudy with Light Snow 36 2 36 2 100 100 NNW 17 28 29.62 1003 5 8.04672 0 0
5:15 am 05:15 Windy with Snow Likely 36 2 36 2 100 100 N 21 33 29.62 1003 7 11.265408 0 0
5:35 am 05:35 Cloudy with Light Rain 36 2 36 2 100 100 N 14 22 29.65 1004 10 16.09344 0 0
5:55 am 05:55 Cloudy with Light Rain 36 2 36 2 100 100 NNW 18 30 29.65 1004 10 16.09344 0 0
6:15 am 06:15 Cloudy with Light Snow 36 2 36 2 100 100 N 16 26 29.68 1005 10 16.09344 0 0
6:35 am 06:35 Cloudy 36 2 36 2 100 100 N 14 22 29.68 1005 10 16.09344 0 0
6:55 am 06:55 Cloudy 36 2 34 1 93 93 N 15 24 29.71 1006 10 16.09344 0 0
7:15 am 07:15 Cloudy 36 2 34 1 93 93 N 21 33 29.71 1006 10 16.09344 0 0
7:35 am 07:35 Cloudy 36 2 34 1 93 93 NNW 24 39 29.74 1007 10 16.09344 0 0
7:55 am 07:55 Cloudy 36 2 32 0 87 87 NNW 22 35 29.77 1008 10 16.09344 0 0
8:15 am 08:15 Cloudy 36 2 32 0 87 87 NNW 24 39 29.77 1008 10 16.09344 0 0
8:35 am 08:35 Cloudy 36 2 30 -1 81 81 NNW 29 46 29.77 1008 10 16.09344 0.01 0.254
8:55 am 08:55 Cloudy 36 2 30 -1 81 81 NNW 30 48 29.8 1009 10 16.09344 0.01 0.254
9:15 am 09:15 Cloudy 36 2 28 -2 75 75 NNW 26 43 29.8 1009 10 16.09344 0 0
9:35 am 09:35 Cloudy 34 1 27 -3 75 75 N 25 41 29.83 1010 10 16.09344 0 0
9:55 am 09:55 Cloudy 34 1 27 -3 75 75 NNW 23 37 29.83 1010 10 16.09344 0 0
10:15 am 10:15 Windy with Snow Likely 34 1 27 -3 75 75 N 21 33 29.83 1010 10 16.09344 0 0
10:35 am 10:35 Cloudy 34 1 27 -3 75 75 N 22 35 29.85 1011 10 16.09344 0 0
10:55 am 10:55 Cloudy 34 1 27 -3 75 75 NNW 15 24 29.85 1011 10 16.09344 0 0
11:15 am 11:15 Cloudy 34 1 23 -5 65 65 NNW 29 46 29.85 1011 10 16.09344 0 0
11:35 am 11:35 Cloudy 32 0 23 -5 69 69 NW 23 37 29.88 1012 10 16.09344 0 0
11:55 am 11:55 Mostly Cloudy 34 1 19 -7 56 56 NW 26 43 29.88 1012 10 16.09344 0 0
12:15 pm 12:15 Mostly Cloudy 34 1 19 -7 56 56 NNW 29 46 29.88 1012 10 16.09344 0 0
12:35 pm 12:35 Mostly Cloudy 34 1 19 -7 56 56 NNW 26 43 29.88 1012 10 16.09344 0 0
12:55 pm 12:55 Mostly Cloudy 34 1 19 -7 56 56 NNW 23 37 29.88 1012 10 16.09344 0 0
1:15 pm 13:15 Partly Cloudy 36 2 21 -6 56 56 NW 25 41 29.88 1012 10 16.09344 0 0
1:35 pm 13:35 Mostly Cloudy 36 2 19 -7 52 52 NNW 23 37 29.88 1012 10 16.09344 0 0
1:55 pm 13:55 Cloudy 34 1 19 -7 56 56 NW 21 33 29.88 1012 10 16.09344 0 0
2:15 pm 14:15 Cloudy 34 1 21 -6 60 60 NNW 22 35 29.91 1013 10 16.09344 0 0
2:35 pm 14:35 Cloudy 34 1 21 -6 60 60 NNW 22 35 29.91 1013 10 16.09344 0 0
2:55 pm 14:55 Cloudy 34 1 21 -6 60 60 NNW 22 35 29.94 1014 10 16.09344 0 0
3:15 pm 15:15 Mostly Cloudy 32 0 25 -4 75 75 N 18 30 29.94 1014 10 16.09344 0 0
3:35 pm 15:35 Mostly Cloudy 32 0 23 -5 69 69 NNW 14 22 29.97 1015 10 16.09344 0 0
3:55 pm 15:55 Windy with Snow Likely 30 -1 27 -3 86 86 NNW 21 33 29.97 1015 0.75 1.207008 0 0
4:15 pm 16:15 Cloudy 30 -1 28 -2 93 93 N 15 24 30 1016 10 16.09344 0 0
4:35 pm 16:35 Cloudy with Snow 28 -2 28 -2 100 100 NW 18 30 30 1016 0.25 0.402336 0 0
4:55 pm 16:55 Mostly Cloudy 30 -1 23 -5 75 75 NNW 29 46 30.03 1017 10 16.09344 0 0
5:15 pm 17:15 Mostly Cloudy 30 -1 18 -8 59 59 WNW 28 44 30.03 1017 10 16.09344 0 0
5:35 pm 17:35 Partly Cloudy 30 -1 18 -8 59 59 WNW 24 39 30.06 1018 10 16.09344 0 0
5:55 pm 17:55 Mostly Cloudy 30 -1 19 -7 64 64 NNW 24 39 30.09 1019 10 16.09344 0 0
6:15 pm 18:15 Cloudy 28 -2 19 -7 69 69 WNW 12 19 30.09 1019 10 16.09344 0 0
6:35 pm 18:35 Mostly Cloudy 27 -3 18 -8 69 69 NNW 8 13 30.12 1020 10 16.09344 0 0
6:55 pm 18:55 Mostly Cloudy 28 -2 18 -8 64 64 NW 8 13 30.12 1020 10 16.09344 0 0
7:15 pm 19:15 Mostly Cloudy 28 -2 16 -9 59 59 NNW 14 22 30.15 1021 10 16.09344 0 0
7:35 pm 19:35 Partly Cloudy 28 -2 14 -10 55 55 NNW 22 35 30.15 1021 10 16.09344 0 0
7:55 pm 19:55 Mostly Cloudy 28 -2 16 -9 59 59 NW 15 24 30.18 1022 10 16.09344 0 0
8:15 pm 20:15 Partly Cloudy 28 -2 16 -9 59 59 NW 15 24 30.18 1022 10 16.09344 0 0
8:35 pm 20:35 Mostly Cloudy 28 -2 18 -8 64 64 NW 20 31 30.18 1022 10 16.09344 0 0
8:55 pm 20:55 Cloudy 28 -2 18 -8 64 64 NNW 17 28 30.21 1023 10 16.09344 0 0
9:15 pm 21:15 Cloudy 27 -3 19 -7 74 74 WNW 18 30 30.21 1023 10 16.09344 0 0
9:35 pm 21:35 Cloudy 27 -3 19 -7 74 74 WNW 20 31 30.24 1024 10 16.09344 0 0
9:55 pm 21:55 Cloudy 27 -3 18 -8 69 69 NW 17 28 30.24 1024 10 16.09344 0 0
10:15 pm 22:15 Mostly Cloudy 27 -3 14 -10 59 59 WNW 14 22 30.27 1025 10 16.09344 0 0
10:35 pm 22:35 Mostly Cloudy 27 -3 12 -11 54 54 WNW 23 37 30.27 1025 10 16.09344 0 0
10:55 pm 22:55 Mostly Cloudy 25 -4 12 -11 59 59 WNW 12 19 30.3 1026 10 16.09344 0 0
11:15 pm 23:15 Mostly Cloudy 25 -4 12 -11 59 59 NW 14 22 30.3 1026 10 16.09344 0 0
11:35 pm 23:35 Cloudy 25 -4 12 -11 59 59 NNW 15 24 30.3 1026 10 16.09344 0 0
11:55 pm 23:55 Cloudy 25 -4 10 -12 54 54 NW 15 24 30.3 1026 10 16.09344 0 0

Powered by AerisWeather